Location: Kam�li
(14.6864°N, 3.1482°W)
Time: 01:59:19
(UTC+00:00)

Atlas Centaur 2 - Pass Details

Date: 29 October 2020
Orbit: 459 x 1309 km, 30.4° (Epoch: 02 December)

Event Time Altitude Azimuth Distance (km) Brightness Sun altitude
Rises 18:58:35 0° 295° (WNW) 4,146 6.7 -18.2°
Reaches altitude 10° 19:02:01 10° 308° (NW) 3,254 5.8 -19.0°
Maximum altitude 19:08:45 26° 1° (N) 2,319 4.3 -20.6°
Enters shadow 19:12:19 20° 35° (NE) 2,622 4.3 -21.5°
